Simultaneous Nadir Overpasses (SNOs) Predictions

Prediction of SNOs over PacNW region [( 10.00, 139.50) to ( 22.70, 165.60)] between NOAA-19 and NPP Satellites:

Table of predicted SNOs over PacNW region for the next 30.0 days since TLE Epoch: 4/26/2013
Index Date (NOAA-19) Time (NOAA-19) NOAA-19 Lat,Lon Date (NPP) Time (NPP) NPP Lat,Lon Distance(km) Time Diff (sec)
1 05/07/2013 15:19:59 22.64, 158.12 05/07/2013 15:23:15 23.55, 154.02 432.25 196
2 05/08/2013 02:36:29 22.66, 161.55 05/08/2013 02:36:00 22.03, 158.45 326.01 29
3 05/08/2013 15:12:39 10.03, 157.82 05/08/2013 15:09:03 6.58, 154.76 510.58 216
4 05/20/2013 03:46:49 13.41, 145.63 05/20/2013 03:49:28 12.48, 141.72 436.57 159
5 05/20/2013 14:43:31 10.01, 165.17 05/20/2013 14:43:00 9.16, 161.70 392.22 31
6 05/20/2013 16:23:30 17.36, 141.39 05/20/2013 16:21:59 18.02, 138.39 325.91 91
